Location: Dittelspoint
(48.7198°N, 10.7214°E)
Time: 03:50:38
(UTC+00:00)

Cosmos 2333 Rocket - Pass Details

Date: 09 April 2020
Orbit: 840 x 861 km, 70.8° (Epoch: 06 June)

Event Time Altitude Azimuth Distance (km) Brightness Sun altitude
Rises 23:35:34 0° 333° (NNW) 3,407 6.1 -33.1°
Reaches altitude 10° 23:38:03 10° 337° (NNW) 2,469 5.3 -33.1°
Enters shadow 23:42:32 51° 9° (N) 1,056 2.9 -33.0°
